Regional Weather Roundup
Issued by NWS Newport/Morehead, NC

Current Version | Previous Version | Text Only | Print | Product List | Glossary Off
Versions: 1 2 3 4 5 6 7 8 9 10 11 12 13 14 15 16 17 18 19 20 21 22 23 24 25 26 27 28 29 30 31 32 33 34 35 36 37 38 39 40 41 42 43 44 45 46 47 48 49 50
974 ASUS42 KMHX 161713 RWRMHX WEATHER ROUNDUP FOR EASTERN NORTH CAROLINA NATIONAL WEATHER SERVICE NEWPORT/MOREHEAD CITY NC 1200 PM EST MON JAN 16 2017 NOTE: "FAIR" INDICATES FEW OR NO CLOUDS BELOW 12,000 FEET WITH NO SIGNIFICANT WEATHER AND/OR OBSTRUCTIONS TO VISIBILITY NCZ015>017-031-032-045>047-102-103-161800- NORTH COAST CITY SKY/WX TMP DP RH WIND PRES REMARKS EDENTON CLOUDY 45 39 79 CALM 30.45F ELIZABETH CITY CLOUDY 44 40 85 N7 30.46F KITTY HAWK NOT AVBL MANTEO CLOUDY 46 39 76 N9 30.44S $$ NCZ045>047-081-094-103-104-161800- CENTRAL COAST CITY SKY/WX TMP DP RH WIND PRES REMARKS FRISCO CLOUDY 50 44 80 N9 30.41F $$ NCZ095-097-098-100-101-161800- SOUTHERN COAST CITY SKY/WX TMP DP RH WIND PRES REMARKS BEAUFORT CLOUDY 54 43 66 NE8 30.41F CEDAR ISLAND NOT AVBL JACKSONVILLE CLOUDY 51 41 68 NE6 30.41F PINEY ISLAND CLOUDY N/A N/A N/A N7 30.42F WILMINGTON CLOUDY 53 42 66 NE6 30.40F $$ NCZ011>013-027>030-043-044-078>080-089-090>093-098-161800- COASTAL PLAIN CITY SKY/WX TMP DP RH WIND PRES REMARKS AHOSKIE N/A 40 36 85 CALM 30.45F CLINTON CLOUDY 49 41 72 E3 30.43F ELIZABETHTOWN CLOUDY 50 42 73 CALM 30.40F GOLDSBORO CLOUDY 49 35 57 E5 30.41F GREENVILLE CLOUDY 46 36 66 NE3 30.44F HAVELOCK CLOUDY 51 41 68 NE9 30.43F KENANSVILLE CLOUDY 50 37 62 NE3 30.42F KINSTON CLOUDY 50 36 57 NE5 30.44F NEW BERN CLOUDY 49 39 68 NE3 30.43F RICHLANDS CLOUDY 50 40 68 NE6 30.43F ROCKY MOUNT CLOUDY 46 34 62 E3 30.44F WASHINGTON CLOUDY 46 38 73 NE6 30.44F WHITEVILLE CLOUDY 51 45 79 NE6 30.39F $$ AMZ130-135-150-152-154-156-158-170-250-252-270-ANZ085-086-088-633-658-670-161800- MARINE OBSERVATIONS STATION/POSITION TIME TEMP WIND PRES WAVE SWELL AIR SEA DIR/SP/G HT/PER HT/PER (UTC) (F) (DEG/KT/KT) (MB) (FT/S) (FT/S) CHESAPEAKE LIGHT NOT AVBL 64 E VA BEACH 1650 51 58 30/ 10/ 12 1030.0 3/ 7 3/ 7 DUCK 1648 45 44 360/ 8/ 9 1030.3 2 E DUCK 1700 45 N/A 3/10 2/11 OREGON INLET 1636 47 49 10/ 7/ 10 1030.3 13E OREGON INLT NOT AVBL HATTERAS CG 1648 10/ 13/ 16 1029.4 DIAMOND BUOY 1650 57 74 10/ 17/ 21 1028.8 4/ 8 2/ 8 CAPE LOOKOUT 1700 51 30/ 13/ 14 1029.1 BEAUFORT LAB 1648 30/ 7/ 10 1028.8 30 SE NEW RVR IN 1608 55 64 50/ 14/ 19 1029.6 30 SE NEW RVR IN 1643 64 N/A 4/ 5 2/11 27 SE WRIGHTSVLE 1608 58 70 60/ 16/ 21 1028.7 5 SE WRIGHTSVLE NOT AVBL 225 S CAPE HAT 1650 69 72 120/ 6/ 8 1027.0 4/ 8 3/ 8 41 SE CHARLESTON 1650 68 71 70/ 6/ 6 1026.7 4/11 3/11 $$

USA.gov is the U.S. government's official web portal to all federal, state and local government web resources and services.